Davenport, IA

4:45 AM CDT on September 17, 2019 (GMT -0500)
Davenport Municipal

Weather History for KDVN - August, 2019

Change the Weather History Date:

Thursday, August 22, 2019

  Actual Average Record
Temperature  
Mean Temperature 70 °F 71 °F  
Max Temperature 80 °F 81 °F 96 °F (1968)
Min Temperature 59 °F 60 °F 50 °F (1997)
Degree Days  
Heating Degree Days 0 0  
Month to date heating degree days 0 0  
Since 1 June heating degree days 8 28  
Since 1 July heating degree days 0 4  
Cooling Degree Days 5 6  
Month to date cooling degree days 189 157  
Year to date cooling degree days 823 658  
Since 1 June cooling degree days 775 597  
Growing Degree Days 20 (Base 50)    
Moisture  
Dew Point 57 °F    
Average Humidity 68    
Maximum Humidity 90    
Minimum Humidity 45    
Precipitation  
Precipitation 0.00 in 0.13 in 2.26 in (1996)
Month to date precipitation 2.30 3.45  
Year to date precipitation 31.38 24.65  
Snow  
Snow 0.00 in - - ()
Month to date snowfall 0.0  
Since 1 June snowfall 0.0  
Since 1 July snowfall 0.0  
Snow Depth 0.00 in    
Sea Level Pressure  
Sea Level Pressure 30.02 in    
Wind  
Wind Speed 7 mph (NNE)    
Max Wind Speed 13 mph    
Max Gust Speed 17 mph    
Visibility 10 miles    
Events      
T = Trace of Precipitation, MM = Missing Value Source: NWS Daily Summary

Daily Weather History Graph

Daily Weather History Graph

Search for Another Location

Airport or City:

Astronomy

Aug. 22, 2019 Rise Set
Actual Time 6:17 AM CDT 7:51 PM CDT
Civil Twilight 5:48 AM CDT 8:21 PM CDT
Nautical Twilight 5:13 AM CDT 8:56 PM CDT
Astronomical Twilight 4:35 AM CDT 9:33 PM CDT
Moon 11:36 PM CDT (8/22) 12:58 PM CDT (8/22)
Length of Visible Light 14h 32m
Length of Day
13h 33m
Waning Gibbous, 59% of the Moon is Illuminated
Aug 22
Waning Gibbous
Aug 23
Last Quarter
Aug 30
New
Sep 5
First Quarter
Sep 13
Full

Hourly Weather History & Observations

Time (CDT) Temp. Dew Point Humidity Pressure Visibility Wind Dir Wind Speed Gust Speed Precip Events Conditions
12:52 AM 68.0 °F 61.0 °F 78% 30.02 in 10.0 mi North 6.9 mph - N/A   Overcast
1:52 AM 66.9 °F 60.1 °F 79% 30.00 in 10.0 mi North 8.1 mph - N/A   Mostly Cloudy
2:52 AM 64.9 °F 57.9 °F 78% 30.00 in 10.0 mi NNW 5.8 mph - N/A   Clear
3:52 AM 62.1 °F 57.9 °F 86% 30.00 in 10.0 mi North 3.5 mph - N/A   Clear
4:52 AM 61.0 °F 57.0 °F 87% 30.00 in 10.0 mi NNW 5.8 mph - N/A   Clear
5:52 AM 60.1 °F 55.9 °F 86% 30.00 in 10.0 mi North 4.6 mph - N/A   Clear
6:52 AM 60.1 °F 55.9 °F 86% 30.02 in 10.0 mi North 4.6 mph - N/A   Clear
7:52 AM 64.0 °F 57.0 °F 78% 30.02 in 10.0 mi NNE 8.1 mph - N/A   Clear
8:52 AM 68.0 °F 57.0 °F 68% 30.03 in 10.0 mi NNE 9.2 mph - N/A   Clear
9:52 AM 73.0 °F 57.9 °F 59% 30.04 in 10.0 mi NE 5.8 mph - N/A   Clear
10:52 AM 75.0 °F 55.9 °F 51% 30.04 in 10.0 mi ENE 6.9 mph - N/A   Clear
11:52 AM 75.9 °F 57.0 °F 52% 30.04 in 10.0 mi North 8.1 mph - N/A   Clear
12:52 PM 78.1 °F 57.9 °F 50% 30.03 in 10.0 mi North 8.1 mph - N/A   Clear
1:52 PM 79.0 °F 55.9 °F 45% 30.02 in 10.0 mi Variable 5.8 mph - N/A   Clear
2:52 PM 79.0 °F 57.0 °F 47% 30.02 in 10.0 mi North 5.8 mph - N/A   Clear
3:52 PM 79.0 °F 55.9 °F 45% 30.01 in 10.0 mi Variable 6.9 mph - N/A   Clear
4:52 PM 79.0 °F 55.0 °F 44% 30.01 in 10.0 mi NE 8.1 mph - N/A   Clear
5:52 PM 78.1 °F 57.0 °F 48% 30.01 in 10.0 mi NE 8.1 mph - N/A   Clear
6:52 PM 75.0 °F 55.9 °F 51% 30.02 in 10.0 mi NE 5.8 mph - N/A   Clear
7:52 PM 66.9 °F 57.9 °F 73% 30.02 in 10.0 mi NNE 5.8 mph - N/A   Clear
8:52 PM 64.9 °F 57.9 °F 78% 30.04 in 10.0 mi NNE 5.8 mph - N/A   Clear
9:52 PM 63.0 °F 55.9 °F 78% 30.06 in 10.0 mi NE 5.8 mph - N/A   Clear
10:52 PM 64.0 °F 57.0 °F 78% 30.07 in 10.0 mi ENE 5.8 mph - N/A   Clear
11:52 PM 63.0 °F 57.9 °F 84% 30.08 in 10.0 mi East 6.9 mph - N/A   Clear